Погода в Вологде

Погода в Вологде : погода сейчас, прогноз погоды и архив. Всё, что Вы хотите узнать о погоде в Вологде!

Хотите узнать прогноз погоды в Вологде? Тогда Вам сюда: Погода в Вологде

Поиск расширенной информации на нашем сайте:

Другие новости

Новости СМИ2

Главная страница сайта

Новости сайта

03.07.2017

Напоминаем, что на нашем специализированном сайте Метеоцентр.Азия вы можете получить высокодетализированные автоматические прогнозы погоды по пунктам России, СНГ и мира в авиационном формате (включающие направление и скорость ветра, видимость, явления погоды, количество и форму облачности, нижнюю и верхнюю границу облачности).


Погода в Вологде - сегодня

Время (UTC), дата Ветер
(°,м/с) 
Видим.   Явления Облачность Т
(°С)
Тd
(°С)
f(%) Тe
(°С)
Pmin
(гПа)
dP
(гПа)
Po
(мм)
O2
(г/м3)
Тmin Tmax R s Состояние
почвы
06 11.10.18 310 (СЗ) 20000 м    9/6 600 м средняя 
[Sc|Ac trans]
+4.9 +3.2 89 +4  1025.5  757  299  +2.7         
09 11.10.18 320 (СЗ) 6-10{10}  20000 м    8/6 600 м средняя 
[Sc|Ac trans]
+7.9 +2.5 69 +6  1027.2  1.8  758  297           
12 11.10.18 330 (СЗ) 4{10}  20000 м    6/4 600 м средняя 
[Sc|Ac trans]
+8.1 +1.5 63 +7  1028.2  759  297           
18 11.10.18 300 (СЗ) 20000 м    ясно 
+3.5 +0.8 82 +2  1030.2  0.8  760  302           
21 11.10.18 280 (З) 20000 м    ясно 
+0.3 -1.4 88 +1  1031.4  761  306           
00 12.10.18 220 (ЮЗ) 20000 м    10/0 верхняя 
[Ci fib]
-0.4 -1.2 94 1031.2  -0.2  761  307           
03 12.10.18 230 (ЮЗ) 20000 м    10/10 1020 м 
[Sc]
+2.2 +1.4 94 +3  1030.6  -0.5  761  304  -1.5        влажная 
06 12.10.18 220 (ЮЗ) 13000 м    н/о 
+5.3 +4.3 93 +4  1028.6  -1.7  759  299           
09 12.10.18 270 (З) 20000 м  {дождь}  9/9 600 м 
[Sc]
+9.6 +6 78 +9  1027.2  -1.2  758  294           
18 12.10.18 310 (СЗ) 10 км  слаб. дождь  10/10 500 м 
[Sc]
+8.1 +6.4 89 +7  1026  -0.6  757  295           
03 13.10.18 290 (З) 20000 м    10/10 300 м 
[Sc]
+6.5 +5.4 93 +7  1025.9  -0.1  757  297  +6.5    0.0    влажная 
09 13.10.18 250 (З) 20000 м    10/10 600 м 
[Sc]
+7.9 +5.3 84 +9  1025.7  -0.4  757  296           
12 13.10.18 220 (ЮЗ) 20000 м    10/10 660 м 
[Sc]
+9.2 +4.8 74 +9  1025.3  -0.4  757  294           
18 13.10.18 050 (СВ) 20000 м    10/10 300 м 
[Sc]
+6.5 +4.7 88 +7  1024.6  -0.2  756  297           
03 14.10.18 170 (Ю) 0500 м  слаб. морось{туман}  ?/?  
+6.8 +5.9 94 +8  1022.9  -0.7  755  296  +6.2    0.5    влажная 
06 14.10.18 210 (ЮЗ) 2300 м    н/о 
+8.8 +7.9 94 +10  1023  0.2  755  293           
12 14.10.18 240 (ЮЗ) 4000 м  дымка{дождь}  10/1 2000 м средняя, верхняя 
[Ac trans|Ci fib]
+13.8 +11.2 84 +17  1019.6  -1.8  753  287           
18 14.10.18 280 (З) 20000 м    н/о 
+13.7 +10.3 80 +15  1019.9  0.6  753  287           
21 14.10.18 290 (З) 20000 м    ясно 
+12.5 +10.2 86 +14  1020.5  0.5  754  288           
00 15.10.18 280 (З) 15000 м    н/о 
+10.7 +8.4 86 +12  1021.4  0.7  754  291           
03 15.10.18 250 (З) 8000 м    н/о 
+7.2 +6.1 93 +7  1021.9  0.3  754  295  +5.9         
06 15.10.18 280 (З) 11000 м    н/о 
+11.5 +8.6 82 +12  1022.3  0.6  755  290           
09 15.10.18 260 (З) 20000 м    ясно 
+16.4 +9.9 65 +19  1022.3  0.6  755  285           
12 15.10.18 260 (З) 19000 м    н/о 
+18.4 +8.3 52 +20  1021.9  -0.5  755  284           
15 15.10.18 230 (ЮЗ) 20000 м    ясно 
+11.8 +6.8 71 +12  1021.2  -1.2  754  290    +18.5       
Время (UTC), дата Ветер
(°,м/с) 
Видим.   Явления Облачность Т
(°С)
Тd
(°С)
f(%) Тe
(°С)
Pmin
(гПа)
dP
(гПа)
Po
(мм)
O2
(г/м3)
Тmin Tmax R s Состояние
почвы

Для получения пояснительной информации подведите курсор к названию столбца.

ПОГОДА в Вологде - архив

Всё, что Вы хотите узнать о погоде в Вологде - удобно и подробно!

Выберите нужную дату (начиная с 1 января 2015* года) и нажмите кнопку "Найти".
Будут отображены архивные сводки погоды по пункту Вологда, начиная с указанной даты.


Отображать данные в формате CSV (для использования в таблицах Excel)


Внимание! Наш архив погоды предназначен исключительно для личного некоммерческого использования в познавательных целях. Если Вам необходимы официальные справки о состоянии погоды (для производственных, юридических, коммерческих и т.п. целей), обращайтесь в органы Росгидромета.

*Примечание: данная дата относится к архиву по метеостанциям СССР (Россия, СНГ, Балтия).
Архив по метеостанциям Зарубежной Европы и Азии (кроме Китая) хранится 10 дней, по другим регионам земного шара (Китай, Африка, Америка, Австралия, Океания) - 1 день.

Вологда - район местоположения метеостанции


Название, широта, долгота, высота метеостанции:
Вологда (город) 59.3°ш. 39.9°д. 130 м над ур. моря [Российская Федерация]

Дополнительная информация

В oтличие oт бoльшинства пoгoдных сайтoв мы публикуем пoдрoбную метеoинфoрмацию в детальнoм прoфессиoнальнoм фoрмате.

Характеристики температуры и влажнoсти вoздуха измеряются на высoте 2 м в тени вдали oт зданий и деревьев.
Скoрoсть ветра измеряется на высoте 10 м (на урoвне рoста челoвека скoрoсть ветра ниже в 1.5-2 раза). Если метеoстанция нахoдится в гoрoде или в лесу, тo скoрoсть ветра занижена на 2-4 м/с пo сравнению с oткрытым местoм. Скoрoсть ветра над акватoриями крупных рек и oзёр, а также на вершинах хoлмoв на 2-5 м/с выше, чем в oбычных услoвиях.
Атмoсфернoе давление в разных тoчках местнoсти мoжет значительнo oтличаться oт давления на метеoстанции, в зависимoсти oт услoвий рельефа (при пoдъёме на 10 м давление пoнижается примернo на 1 мм рт.ст.).